Location: Isle of Man Observatory
(54.1776°N, 4.6264°W)
Time: 08:31:49
(UTC+02:00)

N. Korean satellite - Visible Passes

Search period start: 24 September 2017 00:00
Search period end: 04 October 2017 00:00
Orbit: 461 x 516 km, 97.2° (Epoch: 23 September)

Date Brightness Start Highest point End Pass type
(mag) Time Alt. Az. Time Alt. Az. Time Alt. Az.
24 Sep 8.3 20:42:29 10° SSW 20:46:01 40° W 20:49:32 10° NNW visible
26 Sep 10.0 21:31:22 10° WSW 21:33:27 14° W 21:35:32 10° NW visible
27 Sep 9.4 21:07:00 10° SSW 21:10:01 23° W 21:13:01 10° NW visible
28 Sep 8.3 20:43:10 10° SSW 20:46:39 38° W 20:50:07 10° NNW visible
30 Sep 10.0 21:32:06 10° WSW 21:34:05 14° W 21:36:02 10° NW visible
01 Oct 9.4 21:07:40 10° SSW 21:10:37 22° W 21:13:34 10° NW visible
02 Oct 8.4 20:43:48 10° SSW 20:47:14 37° W 20:50:39 10° NNW visible
03 Oct 7.1 20:20:17 10° S 20:23:55 66° WSW 20:27:32 10° NNW visible
